Weather History for Cleveland, OH

Change the Weather History Date:

Saturday, October 11, 2014

  Actual Average Record
Temperature  
Mean Temperature 47 °F 55 °F  
Max Temperature 56 °F 64 °F 86 °F (1928)
Min Temperature 38 °F 47 °F 25 °F (1964)
Degree Days  
Heating Degree Days 18 10  
Month to date heating degree days 125 95  
Since 1 July heating degree days 268 198  
Cooling Degree Days 0 0  
Month to date cooling degree days 0 10  
Year to date cooling degree days 653 814  
Moisture  
Dew Point 38 °F    
Average Humidity 66    
Maximum Humidity 85    
Minimum Humidity 46    
Precipitation  
Precipitation 0.00 in 0.10 in 0.74 in (2006)
Month to date precipitation 0.53 1.17  
Year to date precipitation 36.11 30.52  
Snow  
Snow 0.00 in 0.00 in - ()
Month to date snowfall 0.0 0.0  
Since 1 July snowfall 0.0 0.0  
Since 1 September snowfall 0.0 0.0  
Snow Depth 0.00 in    
Sea Level Pressure  
Sea Level Pressure 30.20 in    
Wind  
Wind Speed 6 mph (NE)    
Max Wind Speed 17 mph    
Max Gust Speed 22 mph    
Visibility 10 miles    
Events      
T = Trace of Precipitation, MM = Missing Value Source: NWS Daily Summary

Daily Weather History Graph

Daily Weather History Graph

Search for Another Location

Airport:

Trip Planner

Search our weather history database for the weather conditions in past years. The results will help you decide how hot, cold, wet, or windy it might be!

Date:

Astronomy

Oct. 11, 2014 Rise Set
Actual Time 7:34 AM EDT 6:52 PM EDT
Civil Twilight 7:07 AM EDT 7:20 PM EDT
Nautical Twilight 6:35 AM EDT 7:52 PM EDT
Astronomical Twilight 6:02 AM EDT 8:24 PM EDT
Moon 9:17 PM EDT (10/11) 10:59 AM EDT (10/11)
Length of Visible Light 12h 13m
Length of Day
11h 17m
Waning Gibbous, 87% of the Moon is Illuminated
Oct 11
Waning Gibbous
Oct 15
Last Quarter
Oct 23
New
Oct 30
First Quarter
Nov 6
Full

Hourly Weather History & Observations

Time (EDT) Temp. Windchill Dew Point Humidity Pressure Visibility Wind Dir Wind Speed Gust Speed Precip Events Conditions
12:51 AM 50.0 °F - 41.0 °F 71% 30.13 in 10.0 mi ENE 6.9 mph - N/A   Overcast
1:51 AM 50.0 °F - 39.9 °F 68% 30.13 in 10.0 mi ENE 8.1 mph - N/A   Overcast
2:51 AM 50.0 °F - 39.0 °F 66% 30.12 in 10.0 mi NE 5.8 mph - N/A   Overcast
3:51 AM 50.0 °F - 39.0 °F 66% 30.11 in 10.0 mi NE 5.8 mph - N/A   Overcast
4:51 AM 48.9 °F - 37.9 °F 66% 30.13 in 10.0 mi ENE 4.6 mph - N/A   Mostly Cloudy
5:51 AM 48.9 °F - 37.9 °F 66% 30.14 in 10.0 mi NE 3.5 mph - N/A   Mostly Cloudy
6:51 AM 46.0 °F 44.8 °F 37.9 °F 73% 30.16 in 10.0 mi Variable 3.5 mph - N/A   Scattered Clouds
7:51 AM 44.1 °F 42.5 °F 39.9 °F 85% 30.17 in 10.0 mi South 3.5 mph - N/A   Mostly Cloudy
8:51 AM 48.0 °F - 41.0 °F 77% 30.21 in 10.0 mi Calm Calm - N/A   Mostly Cloudy
9:51 AM 51.1 °F - 39.9 °F 66% 30.21 in 10.0 mi Calm Calm - N/A   Mostly Cloudy
10:51 AM 52.0 °F - 39.9 °F 63% 30.23 in 10.0 mi NNE 11.5 mph - N/A   Overcast
11:51 AM 53.1 °F - 39.9 °F 61% 30.23 in 10.0 mi North 16.1 mph - N/A   Mostly Cloudy
12:51 PM 53.1 °F - 37.9 °F 57% 30.24 in 10.0 mi NNE 12.7 mph - N/A   Mostly Cloudy
1:51 PM 53.1 °F - 39.0 °F 59% 30.24 in 10.0 mi North 12.7 mph - N/A   Mostly Cloudy
2:51 PM 54.0 °F - 39.0 °F 57% 30.23 in 10.0 mi NNE 11.5 mph - N/A   Mostly Cloudy
3:51 PM 53.1 °F - 37.9 °F 57% 30.24 in 10.0 mi North 9.2 mph - N/A   Mostly Cloudy
4:51 PM 53.1 °F - 34.0 °F 48% 30.23 in 10.0 mi NNE 11.5 mph 18.4 mph N/A   Mostly Cloudy
5:51 PM 51.1 °F - 35.1 °F 54% 30.23 in 10.0 mi NNE 8.1 mph - N/A   Overcast
6:51 PM 50.0 °F - 36.0 °F 59% 30.23 in 10.0 mi NE 6.9 mph - N/A   Mostly Cloudy
7:51 PM 48.9 °F - 35.1 °F 59% 30.25 in 10.0 mi ENE 5.8 mph - N/A   Mostly Cloudy
8:51 PM 44.1 °F 40.8 °F 37.0 °F 76% 30.25 in 10.0 mi SSE 5.8 mph - N/A   Scattered Clouds
9:51 PM 41.0 °F 39.0 °F 36.0 °F 82% 30.27 in 10.0 mi South 3.5 mph - N/A   Scattered Clouds
10:51 PM 41.0 °F - 36.0 °F 82% 30.27 in 10.0 mi Calm Calm - N/A   Scattered Clouds
11:51 PM 39.9 °F 37.8 °F 36.0 °F 86% 30.26 in 10.0 mi South 3.5 mph - N/A   Scattered Clouds